Domov               UVHVVR             MKGP            O straneh              
ZDRAVSTVENO VARSTVO RASTLIN
  MREŽA AGROMET. POSTAJ
 ► PROGNOSTIČNA OBVESTILA
AGROMETEOROLOŠKI PODATKI -
ARSO
OBVLADOVANJE TVEGANJ ZARADI
NEUGODNIH VREMENSKIH RAZMER
  ► NARAVNE NESREČE
  ► SUŠA/MOČA
  ► NAMAKANJE
  ► ŽLED (gozdarstvo)
KARTOGRAFSKI PRIKAZI
SPLETNE POVEZAVE
PROJEKTI IN PUBLIKACIJE

AGROMETEOROLOŠKA MREŽA: VREMENSKE POSTAJE IN FENOLOŠKA OPAZOVANJA

Pregled podatkov za lokacijo Podbrezje, meteorološka postaja 855704

Pregled senzorjev na lokaciji

ID Ime Zadnja
vrednost
Datum
zadnje
spremembe
Tip
senzorja
4021 Temperatura 2 m ( °C) 9,84 °C 23.8.2017 05:30 50YA
4022 Relativna vlaga 2 m (% RH) 94,9 % RH 23.8.2017 05:30 50YA
4023 Omočenost lista (U) 10 U 23.8.2017 05:30 A730WET
4024 Padavine 0.2 mm (mm) 0 mm 23.8.2017 05:30 Rain-O-Matic

Pregled podatkov zadnjih 24 ur

Zap.
št.
Datum in čas Podbrezje
Omočenost
lista
Padavine
0.2
mm
Relativna
vlaga
2
m
Temperatura
2
m
0 23.8.2017 04:30 10 0 94,9 9,84
1 23.8.2017 04:00 10 0 94,52 10,13
2 23.8.2017 03:30 10 0 93,7 10,45
3 23.8.2017 03:00 10 0 93,45 10,61
4 23.8.2017 02:30 10 0 92,82 10,77
5 23.8.2017 02:00 10 0 90,24 11,29
6 23.8.2017 01:30 10 0 89,17 11,66
7 23.8.2017 01:00 10 0 89,12 11,81
8 23.8.2017 00:30 10 0 87,84 12,19
9 23.8.2017 00:00 10 0 85,96 12,62
10 22.8.2017 23:30 10 0 88,68 12,29
11 22.8.2017 23:00 10 0 88,41 12,64
12 22.8.2017 22:30 7 0 86,15 13,2
13 22.8.2017 22:00 3 0 83,67 13,68
14 22.8.2017 21:30 1 0 83,81 13,91
15 22.8.2017 21:00 0 0 80,86 14,52
16 22.8.2017 20:30 0 0 76,03 15,32
17 22.8.2017 20:00 0 0 70,16 16,36
18 22.8.2017 19:30 0 0 67,72 17,19
19 22.8.2017 19:00 0 0 62,14 18,49
20 22.8.2017 18:30 0 0 53,6 19,84
21 22.8.2017 18:00 0 0 49,08 20,72
22 22.8.2017 17:30 0 0 46,64 21,4
23 22.8.2017 17:00 0 0 44,95 21,95
24 22.8.2017 16:30 0 0 43,8 22,26
25 22.8.2017 16:00 0 0 42,14 22,53
26 22.8.2017 15:30 0 0 41,89 22,35
27 22.8.2017 15:00 0 0 42,44 22,4
28 22.8.2017 14:30 0 0 41,9 22,07
29 22.8.2017 14:00 0 0 42,21 22,05
30 22.8.2017 13:30 0 0 43,17 21,78
31 22.8.2017 13:00 0 0 42,46 21,47
32 22.8.2017 12:30 0 0 40,43 21,14
33 22.8.2017 12:00 0 0 40,95 21,02
34 22.8.2017 11:30 0 0 41,16 20,4
35 22.8.2017 11:00 0 0 42,14 20,16
36 22.8.2017 10:30 0 0 44,23 19,64
37 22.8.2017 10:00 0 0 48,62 19,34
38 22.8.2017 09:30 0 0 57,92 18,58
39 22.8.2017 09:00 0 0 65,13 16,94
40 22.8.2017 08:30 0 0 69,59 16,18
41 22.8.2017 08:00 5 0 74,26 14,48
42 22.8.2017 07:30 10 0 80,7 12,5
43 22.8.2017 07:00 10 0 88,3 10,48
44 22.8.2017 06:30 10 0 92,63 9,16
© 2011 Ministrstvo za kmetijstvo, gozdarstvo in prehrano. Vse pravice pridržane.